Tracking 25954 objects as of 14-Aug-2022
HD Live streaming from Space Station
objects crossing your sky now

MICROMAS 2A

Track MICROMAS 2A now!
10-day predictions
MICROMAS 2A is classified as:


NORAD ID: 43131
Int'l Code: 2018-004W
Perigee: 452.8 km
Apogee: 462.5 km
Inclination: 97.4 °
Period: 93.6 minutes
Semi major axis: 6828 km
RCS: Unknown
Launch date: January 12, 2018
Source: United States (US)
Launch site: SRIHARIKOTA (SRI)

MICROMAS 2A is a 3U cubesat from MIT Lincoln Lab, designed for microwave radiometry of tropical weather.
aabbcc
Your satellite tracking list
Your tracking list is empty




NASA's NSSDC Master Catalog

Two Line Element Set (TLE):
1 43131U 18004W   22226.21508134  .00019982  00000-0  52687-3 0  9993
2 43131  97.3731 305.7160 0007112 135.6109 224.5707 15.38507687255450
Source of the keplerian elements: AFSPC